Location: Newark
(49.5647°N, 8.2922°E)
Time: 14:54:39
(UTC+00:00)

Transit 2A - Pass Details

Date: 22 February 2020
Orbit: 597 x 962 km, 66.7° (Epoch: 04 April)

Event Time Altitude Azimuth Distance (km) Brightness Sun altitude
Rises 22:37:58 0° 310° (NW) 3,131 9.7 -48.5°
Enters shadow 22:38:24 - 307° (NW) 2,992 9.6 -48.5°
Reaches altitude 10° 22:41:05 10° 289° (WNW) 2,279 - -48.7°
Maximum altitude 22:44:11 16° 252° (WSW) 1,958 - -48.9°
Drops below altitude 10° 22:47:26 10° 216° (SW) 2,417 - -49.1°
Sets 22:50:54 0° 196° (SSW) 3,422 - -49.2°
